Regional Weather Roundup
Issued by NWS

Home | Current Version | Previous Version | Graphics & Text | Print | Product List | Glossary On
Versions: 1 2 3 4 5 6 7 8 9 10 11 12 13 14 15 16 17 18 19 20 21 22 23 24 25 26 27 28 29 30 31 32 33 34 35 36 37 38 39 40 41 42 43 44 45 46 47 48 49 50
000
ASUS45 KABQ 231601
RWRNM
NEW MEXICO REGIONAL WEATHER ROUNDUP
NATIONAL WEATHER SERVICE ALBUQUERQUE NM
1000 AM MDT SAT JUL 23 2016

NOTE: "FAIR" MEANS FEW OR NO CLOUDS BELOW 12,000 FEET AGL WITH NO
       SIGNIFICANT WEATHER OR OBSTRUCTIONS TO VISION.

      THIS PRODUCT IS RELEASED AS TWO VERSIONS.  ONE VERSION NEAR
      THE TOP OF THE HOUR CONTAINING PRELIMINARY DATA FROM ALBUQUERQUE
      AND OTHER STATIONS.  A FINAL VERSION WITH ADDITIONAL DATA IS
      ISSUED ABOUT 10 MINUTES AFTER THE HOUR.

NMZ501-503-504-510>518-231700-
NORTHWEST PLATEAU/NORTHCENTRAL MOUNTAINS

CITY           SKY/WX    TMP DP  RH WIND       PRES   REMARKS
FARMINGTON     FAIR      76  50  40 E5        30.22S
LOS ALAMOS     FAIR      78  47  33 E6        30.33S
SANTA FE       FAIR      85  48  27 N8        30.25F
TAOS           FAIR      77  43  29 CALM      30.33F
ANGEL FIRE     FAIR      74  42  30 W9G16     30.41F

$$
NMZ402-403-502-505>509-231700-
WESTCENTRAL MOUNTAINS/SOUTHWEST MOUNTAINS

CITY           SKY/WX    TMP DP  RH WIND       PRES   REMARKS
GALLUP         FAIR      79  50  36 NW6       30.30F
GRANTS         FAIR      80  47  31 NW7       30.31F
SILVER CITY    FAIR      86  46  24 CALM      30.19S

$$
NMZ407-409-411-412-231700-
SOUTHERN DESERTS

CITY           SKY/WX    TMP DP  RH WIND       PRES   REMARKS
LORDSBURG      FAIR      86  50  28 NW7       30.11S
DEMING         FAIR      91  48  22 E14       30.09F
LAS CRUCES     FAIR      89  42  19 E5        30.12S
ALAMOGORDO     FAIR      90  46  22 S9        30.11S
T OR C         FAIR      89  47  23 N9        30.13F

$$
NMZ519>523-231700-
CENTRAL VALLEYS/CENTRAL HIGHLANDS

CITY           SKY/WX    TMP DP  RH WIND       PRES   REMARKS
ALBUQUERQUE    FAIR      82  49  31 VRB5      30.20S
DOUBLE EAGLE   MOSUNNY   82  52  34 NE6       30.24S
MORIARTY ARPT  FAIR      85  43  22 N7        30.25F
CLINES CORNERS FAIR      81  46  29 W12       30.31R
BELEN          FAIR      83  47  28 CALM      30.18F
SOCORRO        FAIR      85  48  27 N3        30.15S

$$
NMZ524>526-539-540-231700-
SOUTHCENTRAL MOUNTAINS

CITY           SKY/WX    TMP DP  RH WIND       PRES   REMARKS
RUIDOSO          N/A     82  41  23 CALM      30.31F

$$
NMZ527>531-231700-
NORTHEAST HIGHLANDS/NORTHEAST PLAINS

CITY           SKY/WX    TMP DP  RH WIND       PRES   REMARKS
LAS VEGAS      FAIR      84  45  25 VRB3      30.27S
RATON          FAIR      80  47  31 S6        30.21F
CLAYTON        FAIR      87  48  25 S9        30.11S

$$
NMZ532>537-231700-
EASTCENTRAL PLAINS

CITY           SKY/WX    TMP DP  RH WIND       PRES   REMARKS
TUCUMCARI      FAIR      91  51  25 SW20G26   30.07F
CANNON AFB     FAIR      87  54  32 S12G21    30.12S
CLOVIS AIRPORT FAIR      88  55  33 S16G24    30.12F

$$
NMZ028-029-538-231700-
SOUTHEAST PLAINS

CITY           SKY/WX    TMP DP  RH WIND       PRES   REMARKS
ROSWELL        FAIR      89  53  29 S15G22    30.07F
ARTESIA        FAIR      86  57  37 SE12G20   30.07F
CARLSBAD       FAIR      87  56  34 SE8       30.05F
HOBBS          SUNNY     86  55  35 SE13      30.11F


$$



USA.gov is the U.S. government's official web portal to all federal, state and local government web resources and services.